STARLINK-5878 (55955 NORAD) Tracking and Keplerian Element Data

This shows tracking and keplerian element data for the satellite.

Feedback or suggestion? Click here.




ElementValue
Catalog55955
NameSTARLINK-5878
Epoch Orbit839
Epoch Day126.86636782
Epoch Year2023
RAAN40.2046
Inclination69.9986
Eccentricity0.0004065
Argument of Perigee262.242
Mean Anonmoly97.8315
Mean Motion15.69935073
Decay Rate1.51E-05
L11 55955U 23037AT 23126.86636782 .00001510 00000+0 14318-4 0 9991
L22 55955 69.9986 40.2046 0004065 262.2420 97.8315 15.69935073 8398



Live tracking and technical data element details for STARLINK-5878 (NORAD 55955). STARLINK-5878 can be tracked NOW for your location showing map with azimuth and elevation plus other details from your city location.







IsCatalogInMostPopularTable: catalog: 55955, numindb: 9
Update: records affected: 1



GetName: 55955 STARLINK-5878

Hit Count: updated at: Tue, 06 Jun 2023 02:17:32 GMT